Time,TemperatureF,DewpointF,PressureIn,WindDirection,WindDirectionDegrees,WindSpeedMPH,WindSpeedGustMPH,Humidity,HourlyPrecipIn,Conditions,Clouds,dailyrainin,SolarRadiationWatts/m^2,SoftwareType,DateUTC
2013-06-24 00:22:00,75.0,74.0,-100.00,ENE,62,3.0,-999.0,97,0.00,,,-99.99,0.000000,,2013-06-24 04:22:00,
2013-06-24 00:53:00,75.0,74.0,-100.00,SE,127,3.0,-999.0,96,0.00,,,-99.99,0.000000,,2013-06-24 04:53:00,
2013-06-24 01:02:00,75.0,74.0,-100.00,ESE,122,3.0,-999.0,95,0.00,,,-99.99,0.000000,,2013-06-24 05:02:00,
2013-06-24 01:22:00,74.0,73.0,-100.00,South,171,2.0,-999.0,95,0.00,,,-99.99,0.000000,,2013-06-24 05:22:00,
2013-06-24 01:35:00,73.0,72.0,-100.00,SSW,192,3.0,-999.0,96,0.00,,,-99.99,0.000000,,2013-06-24 05:35:00,
2013-06-24 01:56:00,74.0,73.0,-100.00,South,171,4.0,-999.0,96,0.00,,,-99.99,0.000000,,2013-06-24 05:56:00,
2013-06-24 02:07:00,74.0,73.0,-100.00,ESE,123,2.0,-999.0,96,0.00,,,-99.99,0.000000,,2013-06-24 06:07:00,
2013-06-24 02:24:00,74.0,73.0,-100.00,ESE,112,5.0,-999.0,96,0.00,,,-99.99,0.000000,,2013-06-24 06:24:00,
2013-06-24 02:57:00,75.0,74.0,-100.00,ESE,107,4.0,-999.0,94,0.00,,,-99.99,0.000000,,2013-06-24 06:57:00,
2013-06-24 03:05:00,75.0,74.0,-100.00,ESE,107,4.0,-999.0,94,0.00,,,-99.99,0.000000,,2013-06-24 07:05:00,
2013-06-24 04:26:00,72.0,72.0,-100.00,WNW,287,2.0,-999.0,97,0.00,,,-99.99,0.000000,,2013-06-24 08:26:00,
2013-06-24 04:55:00,72.0,72.0,-100.00,NNW,345,2.0,-999.0,98,0.00,,,-99.99,0.000000,,2013-06-24 08:55:00,
2013-06-24 05:26:00,72.0,72.0,-100.00,NE,36,2.0,-999.0,99,0.00,,,-99.99,0.000000,,2013-06-24 09:26:00,
2013-06-24 05:37:00,72.0,72.0,-100.00,North,354,3.0,-999.0,99,0.00,,,-99.99,0.000000,,2013-06-24 09:37:00,
2013-06-24 06:00:00,72.0,72.0,-100.00,NE,46,5.0,-999.0,99,0.00,,,-99.99,0.000000,,2013-06-24 10:00:00,
2013-06-24 06:24:00,73.0,73.0,-100.00,ESE,121,2.0,-999.0,99,0.00,,,-99.99,0.000000,,2013-06-24 10:24:00,
2013-06-24 07:29:00,72.0,72.0,-100.00,NNE,21,2.0,-999.0,100,0.00,,,-99.99,13.600000,,2013-06-24 11:29:00,
2013-06-24 07:58:00,73.0,73.0,-100.00,NE,38,2.0,-999.0,100,0.00,,,-99.99,52.799999,,2013-06-24 11:58:00,
2013-06-24 08:05:00,74.0,74.0,-100.00,NE,41,1.0,-999.0,99,0.00,,,-99.99,121.300003,,2013-06-24 12:05:00,
2013-06-24 08:36:00,78.0,77.0,-100.00,ENE,60,2.0,-999.0,97,0.00,,,-99.99,259.899994,,2013-06-24 12:36:00,
2013-06-24 08:55:00,79.0,78.0,-100.00,ENE,77,3.0,-999.0,94,0.00,,,-99.99,305.700012,,2013-06-24 12:55:00,
2013-06-24 09:06:00,79.0,78.0,-100.00,ENE,77,3.0,-999.0,94,0.00,,,-99.99,305.700012,,2013-06-24 13:06:00,
2013-06-24 09:14:00,80.0,77.0,-100.00,ENE,77,4.0,-999.0,90,0.00,,,-99.99,351.700012,,2013-06-24 13:14:00,
2013-06-24 09:36:00,81.0,77.0,-100.00,East,101,5.0,-999.0,86,0.00,,,-99.99,411.200012,,2013-06-24 13:36:00,
2013-06-24 09:57:00,83.0,75.0,-100.00,ESE,102,6.0,-999.0,77,0.00,,,-99.99,530.000000,,2013-06-24 13:57:00,
2013-06-24 10:03:00,83.0,75.0,-100.00,ESE,102,6.0,-999.0,77,0.00,,,-99.99,530.000000,,2013-06-24 14:03:00,
2013-06-24 10:16:00,83.0,75.0,-100.00,ESE,102,6.0,-999.0,77,0.00,,,-99.99,530.000000,,2013-06-24 14:16:00,
2013-06-24 10:24:00,84.0,74.0,-100.00,SE,129,7.0,-999.0,72,0.00,,,-99.99,577.500000,,2013-06-24 14:24:00,
2013-06-24 10:59:00,85.0,74.0,-100.00,East,89,7.0,-999.0,69,0.00,,,-99.99,697.900024,,2013-06-24 14:59:00,
2013-06-24 11:05:00,85.0,74.0,-100.00,East,89,7.0,-999.0,69,0.00,,,-99.99,697.900024,,2013-06-24 15:05:00,
2013-06-24 11:14:00,84.0,74.0,-100.00,ESE,109,6.0,-999.0,71,0.00,,,-99.99,520.900024,,2013-06-24 15:14:00,
2013-06-24 11:27:00,86.0,74.0,-100.00,East,99,7.0,-999.0,68,0.00,,,-99.99,833.000000,,2013-06-24 15:27:00,
2013-06-24 11:45:00,86.0,73.0,-100.00,East,93,8.0,-999.0,66,0.00,,,-99.99,820.000000,,2013-06-24 15:45:00,
2013-06-24 11:57:00,86.0,74.0,-100.00,ESE,106,7.0,-999.0,66,0.00,,,-99.99,815.000000,,2013-06-24 15:57:00,
2013-06-24 12:04:00,86.0,74.0,-100.00,ESE,106,7.0,-999.0,66,0.00,,,-99.99,815.000000,,2013-06-24 16:04:00,
2013-06-24 12:15:00,85.0,74.0,-100.00,East,98,8.0,-999.0,68,0.00,,,-99.99,583.099976,,2013-06-24 16:15:00,
2013-06-24 12:24:00,86.0,75.0,-100.00,East,87,10.0,-999.0,70,0.00,,,-99.99,909.000000,,2013-06-24 16:24:00,
2013-06-24 12:43:00,86.0,75.0,-100.00,East,92,8.0,-999.0,69,0.00,,,-99.99,881.000000,,2013-06-24 16:43:00,
2013-06-24 12:56:00,86.0,75.0,-100.00,East,100,10.0,-999.0,69,0.00,,,-99.99,878.000000,,2013-06-24 16:56:00,
2013-06-24 13:05:00,86.0,75.0,-100.00,East,100,10.0,-999.0,69,0.00,,,-99.99,878.000000,,2013-06-24 17:05:00,
2013-06-24 13:14:00,86.0,75.0,-100.00,East,89,10.0,-999.0,69,0.00,,,-99.99,931.000000,,2013-06-24 17:14:00,
2013-06-24 13:25:00,86.0,74.0,-100.00,East,94,10.0,-999.0,68,0.00,,,-99.99,769.000000,,2013-06-24 17:25:00,
2013-06-24 13:35:00,86.0,74.0,-100.00,East,94,10.0,-999.0,68,0.00,,,-99.99,769.000000,,2013-06-24 17:35:00,
2013-06-24 13:57:00,86.0,74.0,-100.00,East,82,10.0,-999.0,67,0.00,,,-99.99,1084.000000,,2013-06-24 17:57:00,
2013-06-24 14:02:00,86.0,74.0,-100.00,East,82,10.0,-999.0,67,0.00,,,-99.99,1084.000000,,2013-06-24 18:02:00,
2013-06-24 14:25:00,86.0,75.0,-100.00,East,98,11.0,-999.0,68,0.00,,,-99.99,991.000000,,2013-06-24 18:25:00,
2013-06-24 14:36:00,86.0,75.0,-100.00,East,98,11.0,-999.0,68,0.00,,,-99.99,991.000000,,2013-06-24 18:36:00,
2013-06-24 14:55:00,85.0,75.0,-100.00,East,100,9.0,-999.0,71,0.00,,,-99.99,377.299988,,2013-06-24 18:55:00,
2013-06-24 15:06:00,85.0,75.0,-100.00,East,100,9.0,-999.0,71,0.00,,,-99.99,377.299988,,2013-06-24 19:06:00,
2013-06-24 15:13:00,87.0,74.0,-100.00,East,92,10.0,-999.0,67,0.00,,,-99.99,870.000000,,2013-06-24 19:13:00,
2013-06-24 15:25:00,87.0,74.0,-100.00,East,93,11.0,-999.0,65,0.00,,,-99.99,895.000000,,2013-06-24 19:25:00,
2013-06-24 15:36:00,87.0,74.0,-100.00,East,93,11.0,-999.0,65,0.00,,,-99.99,895.000000,,2013-06-24 19:36:00,
2013-06-24 15:57:00,86.0,73.0,-100.00,East,82,12.0,-999.0,64,0.00,,,-99.99,858.000000,,2013-06-24 19:57:00,
2013-06-24 16:12:00,86.0,72.0,-100.00,East,86,11.0,-999.0,61,0.00,,,-99.99,808.000000,,2013-06-24 20:12:00,
2013-06-24 16:34:00,86.0,72.0,-100.00,East,91,11.0,-999.0,62,0.00,,,-99.99,774.000000,,2013-06-24 20:34:00,
2013-06-24 16:56:00,86.0,74.0,-100.00,East,95,10.0,-999.0,66,0.00,,,-99.99,697.799988,,2013-06-24 20:56:00,
2013-06-24 17:04:00,86.0,74.0,-100.00,East,95,10.0,-999.0,66,0.00,,,-99.99,697.799988,,2013-06-24 21:04:00,
2013-06-24 17:37:00,86.0,73.0,-100.00,East,87,12.0,-999.0,66,0.00,,,-99.99,599.299988,,2013-06-24 21:37:00,
2013-06-24 17:55:00,86.0,71.0,-100.00,East,97,11.0,-999.0,62,0.00,,,-99.99,530.299988,,2013-06-24 21:55:00,
2013-06-24 18:15:00,85.0,72.0,-100.00,East,94,11.0,-999.0,64,0.00,,,-99.99,482.100006,,2013-06-24 22:15:00,
2013-06-24 18:36:00,85.0,72.0,-100.00,East,94,10.0,-999.0,65,0.00,,,-99.99,432.899994,,2013-06-24 22:36:00,
2013-06-24 18:56:00,85.0,72.0,-100.00,East,91,11.0,-999.0,65,0.00,,,-99.99,333.700012,,2013-06-24 22:56:00,
2013-06-24 19:27:00,84.0,73.0,-100.00,ESE,108,10.0,-999.0,68,0.00,,,-99.99,234.500000,,2013-06-24 23:27:00,
2013-06-24 19:56:00,83.0,72.0,-100.00,ESE,103,8.0,-999.0,69,0.00,,,-99.99,138.600006,,2013-06-24 23:56:00,
2013-06-24 20:24:00,82.0,74.0,-100.00,ESE,102,9.0,-999.0,76,0.00,,,-99.99,52.500000,,2013-06-25 00:24:00,
2013-06-24 20:56:00,80.0,75.0,-100.00,East,93,6.0,-999.0,83,0.00,,,-99.99,1.500000,,2013-06-25 00:56:00,
2013-06-24 21:17:00,80.0,75.0,-100.00,East,92,6.0,-999.0,85,0.00,,,-99.99,0.000000,,2013-06-25 01:17:00,
2013-06-24 21:24:00,79.0,75.0,-100.00,East,95,6.0,-999.0,86,0.00,,,-99.99,0.000000,,2013-06-25 01:24:00,
2013-06-24 21:36:00,79.0,75.0,-100.00,East,95,6.0,-999.0,86,0.00,,,-99.99,0.000000,,2013-06-25 01:36:00,
2013-06-24 21:57:00,79.0,74.0,-100.00,East,95,6.0,-999.0,87,0.00,,,-99.99,0.000000,,2013-06-25 01:57:00,
2013-06-24 22:05:00,79.0,74.0,-100.00,East,95,6.0,-999.0,87,0.00,,,-99.99,0.000000,,2013-06-25 02:05:00,
2013-06-24 22:36:00,78.0,74.0,-100.00,East,100,5.0,-999.0,87,0.00,,,-99.99,0.000000,,2013-06-25 02:36:00,
2013-06-24 22:57:00,78.0,74.0,-100.00,East,89,3.0,-999.0,89,0.00,,,-99.99,0.000000,,2013-06-25 02:57:00,
2013-06-24 23:43:00,77.0,74.0,-100.00,ENE,77,3.0,-999.0,91,0.00,,,-99.99,0.000000,,2013-06-25 03:43:00,